Location: Dal�� Lhota
(48.7500°N, 14.0167°E)
Time: 23:23:09
(UTC+00:00)

Cosmos 1626 - Pass Details

Date: 24 September 2020
Orbit: 490 x 495 km, 82.5° (Epoch: 25 October)

Event Time Altitude Azimuth Distance (km) Brightness Sun altitude
Rises 18:00:35 0° 1° (N) 2,588 5.9 -11.3°
Reaches altitude 10° 18:03:03 10° 17° (NNE) 1,699 4.8 -11.7°
Maximum altitude 18:06:02 22° 70° (ENE) 1,107 3.4 -12.1°
Enters shadow 18:07:06 20° 96° (E) 1,197 3.4 -12.3°
